Regional Weather Roundup
Issued by NWS

Home | Current Version | Previous Version | Graphics & Text | Print | Product List | Glossary On
Versions: 1 2 3 4 5 6 7 8 9 10 11 12 13 14 15 16 17 18 19 20 21 22 23 24 25 26 27 28 29 30 31 32 33 34 35 36 37 38 39 40 41 42 43 44 45 46 47 48 49 50
376
ASUS45 KBOU 130010
RWRCO

WEATHER ROUNDUP FOR COLORADO
NATIONAL WEATHER SERVICE DENVER/BOULDER CO
500 PM MST TUE DEC 12 2017

NOTE: "FAIR" INDICATES FEW OR NO CLOUDS BELOW 12000 FEET WITH NO
SIGNIFICANT WEATHER AND/OR OBSTRUCTIONS TO VISIBILITY.

COZ001>005-013-030-031-130100-
...NORTHWEST COLORADO...

CITY           SKY/WX    TMP DP  RH WIND       PRES   REMARKS
CRAIG          FAIR      29  21  72 S3        30.35F
HAYDEN         FAIR      37  21  52 NE3       30.37F
MEEKER         FAIR      37   7  28 CALM      30.35F
RABBIT EARS PA FAIR      30   5  34 W10G16    30.44F WCI  21
STEAMBOAT SPGS FAIR      33  16  49 CALM      30.37F
WALDEN         FAIR      34  12  40 SW8       30.38S WCI  27
$$

COZ006>008-011-130100-
...WEST CENTRAL VALLEYS...

CITY           SKY/WX    TMP DP  RH WIND       PRES   REMARKS
GRAND JUNCTION FAIR      46  11  24 NW5       30.33F
MONTROSE       FAIR      46  10  23 NE3       30.36F
EAGLE          FAIR      33  15  47 S5        30.41F WCI  29
RIFLE          FAIR      40  12  32 S8        30.34F
DELTA          FAIR      49   8  18 S3        30.34F
NUCLA          FAIR      52   5  15 CALM      30.38F
$$

COZ017>023-064>068-130100-
...SOUTHWEST COLORADO...

CITY           SKY/WX    TMP DP  RH WIND       PRES   REMARKS
DURANGO        FAIR      45   4  18 SW7       30.32F
CORTEZ         FAIR      40   4  22 W3        30.34S
PAGOSA SPRINGS FAIR      42  -4  14 CALM      30.35S
TELLURIDE      FAIR      44   8  22 SW7       30.43R
WOLF CREEK PAS FAIR      34   0  23 W3        30.55S
$$

COZ009-010-012-014-032>034-037-058>063-130100-
...CENTRAL COLORADO...

CITY           SKY/WX    TMP DP  RH WIND       PRES   REMARKS
ASPEN          FAIR      33  15  47 SW7       30.39S WCI  27
BUENA VISTA    FAIR      46   9  22 NW13      30.32S
COPPER MTN     NOT AVBL
BERTHOUD PASS  FAIR      21  10  63 NW21G29   30.47F WCI   6
COTTONWOOD PAS FAIR      46   9  21 W9        30.41S
GUNNISON       FAIR      37   8  30 CALM      30.38F
KREMMLING      FAIR      32  19  59 CALM      30.42F
LEADVILLE      FAIR      34  11  38 NW3       30.42S
MONARCH PASS   FAIR      32   5  32 W14       30.60F WCI  22
SALIDA         FAIR      50   4  15 W12       30.37S
SUNLIGHT       FAIR      34   1  25 W5        30.53S WCI  30
WILKERSON PASS FAIR      36   3  25 N8        30.47S
$$

COZ069>075-130100-
...SAN LUIS VALLEY/SANGRE DE CRISTO MOUNTAINS...

CITY           SKY/WX    TMP DP  RH WIND       PRES   REMARKS
ALAMOSA        FAIR      45   2  17 W3        30.32F
DEL NORTE      FAIR      36   1  22 N3        30.36S
LA VETA PASS   FAIR      34   5  29 SW17        N/A  WCI  23
SAGUACHE       FAIR      37   3  23 CALM      30.36S
$$

COZ035-036-038>040-130100-
...NORTHERN COLORADO FRONT RANGE...

CITY           SKY/WX    TMP DP  RH WIND       PRES   REMARKS
DENVER INTL AP FAIR      58  14  17 CALM      30.16S
DMNS CITY PARK NOT AVBL
AURORA         PTCLDY    55  12  18 NW8       30.18S
FRONT RANGE AP PTCLDY    57  16  19 E10       30.18S
ERIE MUNI ARPT FAIR      50  15  25 CALM      30.21S
BOULDER MUN AP FAIR      59  12  15 W10       30.17R
CENTENNIAL     FAIR      57  15  19 NW3       30.18S
BROOMFIELD     PTCLDY    57  10  15 W13G23    30.18F
FORT COLLINS   FAIR      54  19  25 CALM      30.15F
LONGMONT       FAIR      49  19  30 W5        30.18S
$$

COZ041-046-047-076>085-087-088-130100-
...PIKES PEAK/PALMER DIVIDE AND SOUTHERN FOOTHILLS...

CITY           SKY/WX    TMP DP  RH WIND       PRES   REMARKS
COLO. SPRINGS  FAIR      54  11  18 S3        30.22S
A. F. ACADEMY  FAIR      46   9  22 N5        30.22F
SCHRIEVER AFB  FAIR      47   8  19 CALM      30.22S
CHEYENNE MTN   FAIR      49  11  21 CALM      30.19S
ELLICOTT         N/A    N/A N/A N/A SW7       30.20F
FALCON         FAIR      42   6  22 W3        30.25F
FORT CARSON    FAIR      52  11  19 W5        30.19F
LIMON          FAIR      44  14  29 CALM      30.17S
MONUMENT HILL  FAIR      46  12  25 W5        30.25S
CANON CITY     FAIR      55  14  19 N5        30.17S
WALSENBURG     FAIR      50  10  20 S9        30.20S
TRINIDAD       FAIR      53  10  18 SE6       30.20F
$$

COZ042>045-048>051-090-091-130100-
...NORTHEAST COLORADO...

CITY           SKY/WX    TMP DP  RH WIND       PRES   REMARKS
GREELEY ARPT   FAIR      52  18  26 W8        30.13F
AKRON          FAIR      46  13  26 MISG      30.10F
BURLINGTON     FAIR      48  15  26 SW6       30.11F
WRAY           FAIR      50  14  23 W5        30.06F
YUMA           FAIR      50  14  23 W8        30.08F
STERLING       FAIR      50  16  25 NW9       30.06F
HOLYOKE        FAIR      57  19  23 NW7       30.05F
FORT MORGAN    FAIR      49  12  22 W8        30.11F
$$

COZ086-089-092>099-130100-
...SOUTHEAST COLORADO...

CITY           SKY/WX    TMP DP  RH WIND       PRES   REMARKS
PUEBLO         FAIR      54  10  17 E12       30.14F
LA JUNTA       FAIR      52  12  20 S8        30.14F
LAMAR          FAIR      46  10  23 S8        30.11F
SPRINGFIELD      N/A     48  14  25 CALM      30.16F
$$




USA.gov is the U.S. government's official web portal to all federal, state and local government web resources and services.